Change the Weather History Date:

Thursday, October 27, 2011

  Actual Average Record
Temperature  
Mean Temperature 42 °F -  
Max Temperature 50 °F 55 °F 80 °F (1947)
Min Temperature 33 °F 37 °F 23 °F (1950)
Degree Days  
Heating Degree Days 24    
Moisture  
Dew Point 39 °F    
Average Humidity 86    
Maximum Humidity 93    
Minimum Humidity 77    
Precipitation  
Precipitation 0.75 in - - ()
Sea Level Pressure  
Sea Level Pressure 29.73 in    
Wind  
Wind Speed 8 mph (North)    
Max Wind Speed 15 mph    
Max Gust Speed 23 mph    
Visibility 6 miles    
Events Rain , Snow    
Averages and records for this station are not official NWS values.
T = Trace of Precipitation, MM = Missing Value Source: NWS Daily Summary

Daily Weather History Graph

Daily Weather History Graph

Search for Another Location

Airport or City:

Trip Planner

Search our weather history database for the weather conditions in past years. The results will help you decide how hot, cold, wet, or windy it might be!

Date:

Astronomy

Oct. 27, 2011 Rise Set
Actual Time 7:16 AM EDT 5:51 PM EDT
Civil Twilight 6:47 AM EDT 6:20 PM EDT
Nautical Twilight 6:15 AM EDT 6:53 PM EDT
Astronomical Twilight 5:42 AM EDT 7:25 PM EDT
Moon 8:17 AM EDT (10/27) 6:16 PM EDT (10/27)
Length of Visible Light 11h 32m
Length of Day
10h 35m
New Moon, 1% of the Moon is Illuminated
Oct 27
New Moon
Nov 2
First Quarter
Nov 10
Full
Nov 18
Last Quarter
Nov 25
New

Hourly Weather History & Observations

Time (EDT) Temp. Windchill Dew Point Humidity Pressure Visibility Wind Dir Wind Speed Gust Speed Precip Events Conditions
12:53 AM 50.0 °F - 43.0 °F 77% 29.75 in 10.0 mi Calm Calm - N/A   Overcast
1:53 AM 50.0 °F - 43.0 °F 77% 29.73 in 10.0 mi NNE 4.6 mph - N/A   Overcast
2:53 AM 50.0 °F - 43.0 °F 77% 29.71 in 10.0 mi NNE 5.8 mph - N/A   Overcast
3:53 AM 48.2 °F - 44.6 °F 87% 29.70 in 10.0 mi North 6.9 mph - N/A   Overcast
4:31 AM 48.2 °F - 44.6 °F 87% 29.71 in 10.0 mi North 5.8 mph - 0.00 in Rain Light Rain
4:53 AM 48.9 °F - 44.1 °F 83% 29.70 in 10.0 mi North 6.9 mph - 0.00 in   Overcast
5:53 AM 48.0 °F - 44.1 °F 86% 29.72 in 9.0 mi North 9.2 mph - 0.00 in Rain Light Rain
6:04 AM 48.2 °F - 44.6 °F 87% 29.73 in 9.0 mi North 11.5 mph - 0.00 in Rain Light Rain
6:13 AM 48.2 °F - 44.6 °F 87% 29.72 in 8.0 mi North 13.8 mph 20.7 mph 0.00 in Rain Light Rain
6:53 AM 46.0 °F 40.6 °F 43.0 °F 89% 29.73 in 5.0 mi North 11.5 mph 18.4 mph 0.01 in Rain Light Rain
7:29 AM 46.4 °F 42.9 °F 42.8 °F 87% 29.72 in 8.0 mi NNE 6.9 mph - 0.01 in Rain Light Rain
7:42 AM 46.4 °F 43.5 °F 42.8 °F 87% 29.71 in 4.0 mi North 5.8 mph - 0.02 in Rain Light Rain
7:51 AM 46.4 °F 42.4 °F 42.8 °F 87% 29.73 in 4.0 mi North 8.1 mph - 0.02 in Rain Light Rain
7:53 AM 46.0 °F 41.4 °F 43.0 °F 89% 29.73 in 5.0 mi North 9.2 mph - 0.02 in Rain Light Rain
8:17 AM 46.4 °F 42.4 °F 42.8 °F 87% 29.72 in 2.5 mi North 8.1 mph - 0.03 in Rain Rain
8:24 AM 46.4 °F 42.9 °F 42.8 °F 87% 29.73 in 4.0 mi North 6.9 mph - 0.04 in Rain Light Rain
8:53 AM 46.0 °F 41.0 °F 42.1 °F 86% 29.74 in 10.0 mi North 10.4 mph - 0.05 in   Overcast
9:53 AM 46.0 °F 41.9 °F 42.1 °F 86% 29.74 in 4.0 mi North 8.1 mph - 0.00 in Rain Light Rain
10:53 AM 45.0 °F 38.9 °F 42.1 °F 90% 29.72 in 10.0 mi North 12.7 mph - 0.00 in   Overcast
11:00 AM 44.6 °F 38.8 °F 42.8 °F 93% 29.72 in 10.0 mi North 11.5 mph - N/A   Overcast
11:07 AM 44.6 °F 39.2 °F 42.8 °F 93% 29.72 in 9.0 mi North 10.4 mph - N/A   Overcast
11:38 AM 44.6 °F 39.7 °F 41.0 °F 87% 29.71 in 6.0 mi North 9.2 mph - 0.00 in Rain Light Rain
11:53 AM 45.0 °F 40.1 °F 41.0 °F 86% 29.70 in 5.0 mi North 9.2 mph - 0.01 in Rain Light Rain
12:53 PM 45.0 °F 39.7 °F 41.0 °F 86% 29.67 in 3.0 mi North 10.4 mph - 0.04 in Rain Light Rain
1:15 PM 44.6 °F 40.2 °F 41.0 °F 87% 29.68 in 4.0 mi North 8.1 mph - 0.02 in Rain Light Rain
1:23 PM 44.6 °F 39.2 °F 41.0 °F 87% 29.68 in 1.8 mi North 10.4 mph - 0.04 in Rain Rain
1:26 PM 44.6 °F 38.1 °F 41.0 °F 87% 29.68 in 2.0 mi North 13.8 mph 18.4 mph 0.05 in Rain Rain
1:43 PM 44.6 °F 38.4 °F 39.2 °F 81% 29.67 in 4.0 mi North 12.7 mph - 0.09 in Rain Rain
1:53 PM 44.1 °F 38.1 °F 41.0 °F 89% 29.68 in 5.0 mi North 11.5 mph 20.7 mph 0.09 in Rain Light Rain
2:27 PM 44.6 °F 39.2 °F 39.2 °F 81% 29.69 in 2.5 mi North 10.4 mph - 0.04 in Rain Rain
2:38 PM 44.6 °F 38.4 °F 39.2 °F 81% 29.69 in 2.5 mi North 12.7 mph 17.3 mph 0.08 in Rain Heavy Rain
2:45 PM 44.6 °F 38.4 °F 39.2 °F 81% 29.69 in 3.0 mi North 12.7 mph - 0.11 in Rain Rain
2:53 PM 43.0 °F 36.0 °F 39.9 °F 89% 29.68 in 4.0 mi North 13.8 mph - 0.12 in Rain Rain
3:10 PM 42.8 °F 35.4 °F 39.2 °F 87% 29.66 in 4.0 mi NNE 15.0 mph - 0.04 in Rain Rain
3:53 PM 43.0 °F 36.8 °F 39.0 °F 86% 29.67 in 9.0 mi North 11.5 mph - 0.09 in Rain Light Rain
4:08 PM 42.8 °F 36.2 °F 39.2 °F 87% 29.66 in 10.0 mi North 12.7 mph - 0.00 in   Overcast
4:35 PM 42.8 °F 36.2 °F 39.2 °F 87% 29.65 in 10.0 mi North 12.7 mph - 0.00 in Rain Light Rain
4:53 PM 42.1 °F 34.9 °F 37.9 °F 85% 29.67 in 3.0 mi North 13.8 mph 19.6 mph 0.02 in Rain Heavy Rain
4:58 PM 42.8 °F 36.2 °F 37.4 °F 81% 29.67 in 1.8 mi North 12.7 mph - 0.01 in Rain Heavy Rain
5:05 PM 42.8 °F 36.2 °F 37.4 °F 81% 29.66 in 2.0 mi North 12.7 mph - 0.02 in Rain Rain
5:11 PM 42.8 °F 35.4 °F 37.4 °F 81% 29.66 in 3.0 mi North 15.0 mph 23.0 mph 0.03 in Rain Light Rain
5:21 PM 41.0 °F 33.9 °F 37.4 °F 87% 29.66 in 4.0 mi North 12.7 mph 23.0 mph 0.03 in Rain Light Rain
5:53 PM 39.9 °F 32.1 °F 36.0 °F 86% 29.68 in 5.0 mi NNW 13.8 mph 21.9 mph 0.07 in Rain Light Rain
6:53 PM 35.1 °F 27.4 °F 32.0 °F 89% 29.75 in 4.0 mi North 10.4 mph - 0.11 in Rain Rain
7:22 PM 33.8 °F 27.7 °F 32.0 °F 93% 29.77 in 2.0 mi North 6.9 mph - 0.05 in Snow Light Snow
7:46 PM 33.8 °F 27.0 °F 32.0 °F 93% 29.78 in 5.0 mi North 8.1 mph - 0.07 in Snow Light Snow
7:53 PM 35.1 °F 27.9 °F 32.0 °F 89% 29.78 in 7.0 mi North 9.2 mph - 0.08 in Snow Light Snow
8:53 PM 36.0 °F 28.5 °F 33.1 °F 89% 29.83 in 9.0 mi North 10.4 mph - 0.03 in Rain Light Rain
9:34 PM 37.4 °F 30.8 °F 33.8 °F 87% 29.85 in 10.0 mi North 9.2 mph 17.3 mph 0.00 in   Overcast
9:53 PM 37.0 °F 28.9 °F 34.0 °F 89% 29.86 in 10.0 mi North 12.7 mph 18.4 mph 0.00 in Rain Light Rain
10:53 PM 37.9 °F 30.0 °F 34.0 °F 86% 29.89 in 10.0 mi North 12.7 mph - 0.01 in Rain Light Rain
11:03 PM 37.4 °F 30.3 °F 33.8 °F 87% 29.90 in 10.0 mi North 10.4 mph - 0.00 in Rain Light Rain
11:14 PM 37.4 °F 33.8 °F 33.8 °F 87% 29.90 in 10.0 mi North 4.6 mph - 0.00 in Rain Light Rain
11:27 PM 37.4 °F 32.8 °F 33.8 °F 87% 29.91 in 10.0 mi North 5.8 mph - 0.00 in   Overcast
11:53 PM 37.0 °F 33.3 °F 34.0 °F 89% 29.92 in 10.0 mi NNW 4.6 mph - 0.00 in   Overcast